"Pseudo-MPEC" for JAT11Ig

Created 2023 Mar 26 5:22:07 UT using Find_Orb

Click here for an explanation of pseudo-MPECs

 
 Astrometry: 
     JAT11Ig*!C2023 03 1765f+4]c2X=WXZAstrometryU;tOQredacted;Zer]PVB*46@Tv.kW84
     JAT11Ig !C2023 03 17_@qq8(Or]kl2vQHc(ds`s*tdJ(`XsESDkLFcc7/clickug5L5x.SW84
     JAT11Ig !C2023 03 17K.9E9g/=ooPBn)@dNF0k/!^h5dWgs0l'I7tj8_IB[qK!\S!lx0nxW84
     JAT11Ig !C2023 03 17n6gYn.,Xg\lbLFTfJvGA!##.$J,i*].KpV353jKY,w`=P6eKkBOyW84
     JAT11Ig |C2023 03 19S+iKi'Ynw6'T%:herexPN*'TDE^4d/%`8$`kcP,1Pb@'Eu:OIx0W807
     JAT11Ig |C2023 03 19vU;0s%5Yqmt=VJ3b5cw)C:(s.1BaBT]Qon%N]^FforQXca\v$q:@807
     JAT11Ig |C2023 03 19Iw=k%explanationk3f3g$?7LD?/\e:o(V+%ZW?TLCv=HhQ5UrmN807

Station data:
(807) Cerro Tololo Observatory, La Serena  (S30.169133 W70.805900)  Chile.
   Observer R. Holmes. 0.61-m f/6.5 astrograph + CCD.
(W84) Cerro Tololo-DECam  (S30.169594 W70.806420)  Chile.  Observer F. Valdes.
    Measurer S. Deen. 4.0-m reflector + CCD.

Orbital elements:  JAT11Ig
   Perihelion 2022 Nov 10.40846 +/- 134 TT =  9:48:11 (JD 2459893.90846)
Epoch 2023 Mar 19.0 TT = JDT 2460022.5   Earth MOID: 0.4827      AutoNEOCP
M  57.84549022 +/- 80               (J2000 ecliptic)
n   0.44983900 +/- 0.225            Peri.  309.08071 +/- 70
a   1.68693354 +/- 0.563            Node   175.76690 +/- 9
e   0.1628692 +/- 0.196             Incl.   32.63062 +/- 11
P   2.19/800.27d           H 20.48  G  0.15   U 11.7  SR
q 1.41218395 +/- 0.271    Q 1.96168313 +/- 1.59
From 7 observations 2023 Mar. 17-19; mean residual 0".35
Residuals in arcseconds: 
230317 W84  .27+  .19-    230317 W84  .01-  .90+    230319 807  .13-  .11+    
230317 W84  .07-  .02+    230319 807  .28+  .13+    
230317 W84  .19-  .72-    230319 807  .15-  .25-    

Ephemerides (geocentric):
Date (UTC) HH   RA             Dec           delta  r     elong  mag " sig PA
---- --------  ------------   ------------  ------ ------ -----  --- --------
2023 03 26 05  15 23 55.602   +15 08 31.83  .74885 1.5923 131.0 22.2  749 106
2023 03 26 06  15 23 55.952   +15 10 20.22  .74880 1.5924 131.0 22.2  757 106
2023 03 26 07  15 23 56.297   +15 12 08.60  .74876 1.5925 131.0 22.2  765 106
2023 03 26 08  15 23 56.637   +15 13 56.97  .74872 1.5925 131.0 22.2  773 106
2023 03 26 09  15 23 56.972   +15 15 45.32  .74867 1.5926 131.1 22.2  782 106
2023 03 26 10  15 23 57.301   +15 17 33.67  .74863 1.5927 131.1 22.2  790 106
2023 03 26 11  15 23 57.625   +15 19 22.00  .74859 1.5928 131.1 22.2  798 106
2023 03 26 12  15 23 57.944   +15 21 10.32  .74854 1.5929 131.1 22.2  806 106
2023 03 26 13  15 23 58.258   +15 22 58.63  .74850 1.5930 131.1 22.2  815 106
2023 03 26 14  15 23 58.567   +15 24 46.93  .74846 1.5931 131.2 22.2  823 106
2023 03 26 15  15 23 58.870   +15 26 35.22  .74842 1.5932 131.2 22.2  832 106
2023 03 26 16  15 23 59.168   +15 28 23.49  .74838 1.5933 131.2 22.2  840 106
2023 03 26 17  15 23 59.461   +15 30 11.76  .74834 1.5933 131.2 22.2  849 106
2023 03 26 18  15 23 59.749   +15 32 00.01  .74830 1.5934 131.2 22.2  857 106
2023 03 26 19  15 24 00.031   +15 33 48.24  .74826 1.5935 131.3 22.2  866 106
2023 03 26 20  15 24 00.308   +15 35 36.47  .74822 1.5936 131.3 22.2  874 106
2023 03 26 21  15 24 00.580   +15 37 24.68  .74818 1.5937 131.3 22.2  883 106
2023 03 26 22  15 24 00.847   +15 39 12.87  .74814 1.5938 131.3 22.2  892 106
2023 03 26 23  15 24 01.109   +15 41 01.06  .74810 1.5939 131.3 22.2  900 106
2023 03 27 00  15 24 01.365   +15 42 49.23  .74806 1.5940 131.3 22.2  909 106
2023 03 27 01  15 24 01.617   +15 44 37.38  .74803 1.5941 131.4 22.2  918 106
2023 03 27 02  15 24 01.863   +15 46 25.52  .74799 1.5942 131.4 22.2  927 106
2023 03 27 03  15 24 02.103   +15 48 13.65  .74795 1.5942 131.4 22.2  936 106
2023 03 27 04  15 24 02.339   +15 50 01.76  .74792 1.5943 131.4 22.2  945 106
2023 03 27 05  15 24 02.569   +15 51 49.86  .74788 1.5944 131.4 22.2  954 106
2023 03 27 06  15 24 02.794   +15 53 37.94  .74784 1.5945 131.5 22.2  963 106
2023 03 27 07  15 24 03.014   +15 55 26.01  .74781 1.5946 131.5 22.2  972 106
2023 03 27 08  15 24 03.229   +15 57 14.06  .74777 1.5947 131.5 22.2  981 106
2023 03 27 09  15 24 03.439   +15 59 02.10  .74774 1.5948 131.5 22.2  990 106
2023 03 27 10  15 24 03.643   +16 00 50.12  .74770 1.5949 131.5 22.2  999 106
2023 03 27 11  15 24 03.842   +16 02 38.12  .74767 1.5950 131.5 22.2 1009 106
2023 03 27 12  15 24 04.036   +16 04 26.11  .74764 1.5950 131.6 22.2 1018 106
2023 03 27 13  15 24 04.225   +16 06 14.08  .74760 1.5951 131.6 22.2 1027 106
2023 03 27 14  15 24 04.409   +16 08 02.04  .74757 1.5952 131.6 22.2 1037 106
2023 03 27 15  15 24 04.587   +16 09 49.98  .74754 1.5953 131.6 22.2 1046 106
2023 03 27 16  15 24 04.760   +16 11 37.90  .74751 1.5954 131.6 22.2 1055 106
2023 03 27 17  15 24 04.928   +16 13 25.81  .74748 1.5955 131.7 22.2 1065 106
2023 03 27 18  15 24 05.091   +16 15 13.70  .74744 1.5956 131.7 22.2 1074 106
2023 03 27 19  15 24 05.248   +16 17 01.57  .74741 1.5957 131.7 22.2 1084 106
2023 03 27 20  15 24 05.401   +16 18 49.42  .74738 1.5958 131.7 22.2 1094 106
2023 03 27 21  15 24 05.548   +16 20 37.26  .74735 1.5959 131.7 22.2 1103 106
2023 03 27 22  15 24 05.690   +16 22 25.07  .74732 1.5959 131.7 22.2 1113 106
2023 03 27 23  15 24 05.826   +16 24 12.87  .74729 1.5960 131.8 22.2 1123 106
2023 03 28 00  15 24 05.958   +16 26 00.65  .74726 1.5961 131.8 22.2 1132 106
2023 03 28 01  15 24 06.084   +16 27 48.42  .74724 1.5962 131.8 22.2 1142 106
2023 03 28 02  15 24 06.206   +16 29 36.16  .74721 1.5963 131.8 22.2 1152 106
2023 03 28 03  15 24 06.322   +16 31 23.89  .74718 1.5964 131.8 22.2 1162 106
2023 03 28 04  15 24 06.432   +16 33 11.59  .74715 1.5965 131.8 22.2 1172 106